This demonstration page uses our WeatherBlox Daily Observations layout. Learn more.

Left ArrowRight Arrow

39.51506, -84.39828

Hourly Observations for June 15, 2018

Temp ( °F °C ) Dew Point ( °F °C ) Humidity (%) Winds ( mph kmh ) Pressure ( in mb ) Visibility ( mi km ) Precip ( " mm )
12:15 am 00:15 Clear 62 16.5 59 15 91 91 Calm 30.00 1016 10 16 0.00 0.00
12:35 am 00:35 Clear 61 16.3 59 14.9 91 91 Calm 30.00 1016 10 16 0.00 0.00
12:55 am 00:55 Clear 62 16.4 58 14.7 90 90 Calm 30.00 1016 10 16 0.00 0.00
1:15 am 01:15 Clear 61 16.1 59 14.9 93 93 Calm 30.00 1016 10 16 0.00 0.00
1:35 am 01:35 Clear 62 16.4 58 14.6 89 89 Calm 30.00 1016 10 16 0.00 0.00
1:55 am 01:55 Clear 61 16.3 58 14.4 89 89 Calm 30.03 1017 10 16 0.00 0.00
2:15 am 02:15 Clear 61 16 58 14.5 91 91 Calm 30.03 1017 10 16 0.00 0.00
2:35 am 02:35 Clear 60 15.3 58 14.5 95 95 Calm 30.06 1018 10 16 0.00 0.00
2:55 am 02:55 Clear 60 15.6 58 14.3 92 92 NNW 3 6 30.06 1018 10 16 0.00 0.00
3:15 am 03:15 Clear 59 15 57 14 94 94 NNW 3 6 30.06 1018 10 16 0.00 0.00
3:35 am 03:35 Clear 59 14.9 57 13.9 94 94 N 3 6 30.06 1018 10 16 0.00 0.00
3:55 am 03:55 Clear 58 14.7 57 13.8 94 94 NNW 3 6 30.06 1018 10 16 0.00 0.00
4:15 am 04:15 Clear 58 14.6 57 13.8 95 95 NNW 3 6 30.06 1018 10 16 0.00 0.00
4:35 am 04:35 Clear 58 14.5 56 13.6 94 94 NNW 3 6 30.06 1018 10 16 0.00 0.00
4:55 am 04:55 Clear 59 14.9 57 13.9 94 94 Calm 30.06 1018 10 16 0.00 0.00
5:15 am 05:15 Clear 60 15.3 58 14.5 95 95 NNE 3 6 30.06 1018 10 16 0.00 0.00
5:35 am 05:35 Clear 59 15 58 14.2 95 95 Calm 30.09 1019 10 16 0.00 0.00
5:55 am 05:55 Clear 58 14.6 57 13.8 95 95 N 3 6 30.09 1019 10 16 0.00 0.00
6:15 am 06:15 Sunny 58 14.3 57 13.8 97 97 N 3 6 30.09 1019 10 16 0.00 0.00
6:35 am 06:35 Sunny 58 14.7 57 14 96 96 N 3 6 30.09 1019 10 16 0.00 0.00
6:55 am 06:55 Sunny 59 14.9 57 14 94 94 NNW 3 6 30.09 1019 10 16 0.00 0.00
7:15 am 07:15 Sunny 60 15.5 58 14.3 93 93 N 3 6 30.09 1019 10 16 0.00 0.00
7:35 am 07:35 Sunny 63 17 60 15.3 90 90 Calm 30.06 1018 10 16 0.00 0.00
7:55 am 07:55 Sunny 65 18.2 61 15.9 87 87 Calm 30.06 1018 10 16 0.00 0.00
8:15 am 08:15 Sunny 67 19.2 61 16.3 83 83 Calm 30.06 1018 7 11 0.00 0.00
8:35 am 08:35 Hazy 69 20.3 62 16.7 80 80 Calm 30.06 1018 7 11 0.00 0.00
8:55 am 08:55 Sunny 69 20.8 62 16.4 76 76 Calm 30.06 1018 10 16 0.00 0.00
9:15 am 09:15 Sunny 71 21.7 62 16.7 73 73 Calm 30.06 1018 10 16 0.00 0.00
9:35 am 09:35 Sunny 74 23.2 60 15.3 61 61 Calm 30.06 1018 10 16 0.00 0.00
9:55 am 09:55 Sunny 76 24.3 60 15.4 58 58 SSW 5 7 30.03 1017 10 16 0.00 0.00
10:15 am 10:15 Sunny 78 25.5 58 14.2 50 50 S 6 9 30.03 1017 10 16 0.00 0.00
10:35 am 10:35 Sunny 78 25.5 61 16.1 56 56 SW 7 11 30.03 1017 10 16 0.00 0.00
10:55 am 10:55 Sunny 79 26 61 15.9 54 54 SW 8 13 30.00 1016 10 16 0.00 0.00
11:15 am 11:15 Sunny 80 26.6 62 16.8 55 55 SW 8 13 30.03 1017 10 16 0.00 0.00
11:35 am 11:35 Sunny 80 26.9 61 16 51 51 SW 8 13 30.03 1017 10 16 0.00 0.00
11:55 am 11:55 Sunny 81 27.2 59 15.2 48 48 SW 6 9 30.03 1017 10 16 0.00 0.00
12:15 pm 12:15 Sunny 82 27.5 58 14.7 46 46 Calm 30.03 1017 10 16 0.00 0.00
12:35 pm 12:35 Sunny 82 27.6 58 14.6 45 45 SW 3 6 30.03 1017 10 16 0.00 0.00
12:55 pm 12:55 Sunny 82 27.8 58 14.6 44 44 W 6 9 30.03 1017 10 16 0.00 0.00
1:15 pm 13:15 Sunny 83 28.2 58 14.5 43 43 SW 6 9 30.03 1017 10 16 0.00 0.00
1:35 pm 13:35 Sunny 83 28.1 58 14.2 43 43 NE 3 6 30.03 1017 10 16 0.00 0.00
1:55 pm 13:55 Sunny 83 28.4 59 15.2 45 45 Calm 30.03 1017 10 16 0.00 0.00
2:15 pm 14:15 Sunny 84 29.1 56 13.6 39 39 NE 3 6 29.97 1015 10 16 0.00 0.00
2:35 pm 14:35 Sunny 84 29 55 12.8 37 37 N 3 6 29.97 1015 10 16 0.00 0.00
2:55 pm 14:55 Sunny 85 29.5 56 13.4 37 37 NE 5 7 29.97 1015 10 16 0.00 0.00
3:15 pm 15:15 Sunny 85 29.5 56 13.3 37 37 NW 3 6 29.97 1015 10 16 0.00 0.00
3:35 pm 15:35 Sunny 85 29.6 57 14.1 39 39 N 3 6 29.97 1015 10 16 0.00 0.00
3:55 pm 15:55 Sunny 85 29.7 56 13.5 37 37 N 7 11 29.97 1015 10 16 0.00 0.00
4:15 pm 16:15 Sunny 85 29.7 55 13 36 36 NNW 6 9 29.94 1014 10 16 0.00 0.00
4:35 pm 16:35 Sunny 86 29.8 57 13.7 37 37 N 3 6 29.94 1014 10 16 0.00 0.00
4:55 pm 16:55 Sunny 85 29.7 58 14.2 39 39 NW 3 6 29.94 1014 10 16 0.00 0.00
5:15 pm 17:15 Sunny 86 29.9 57 13.7 37 37 Calm 29.94 1014 10 16 0.00 0.00
5:35 pm 17:35 Sunny 86 29.8 58 14.6 40 40 NNW 3 6 29.94 1014 10 16 0.00 0.00
5:55 pm 17:55 Sunny 85 29.6 57 13.9 38 38 Calm 29.94 1014 10 16 0.00 0.00
6:15 pm 18:15 Sunny 85 29.3 60 15.7 44 44 NW 5 7 29.94 1014 10 16 0.00 0.00
6:35 pm 18:35 Sunny 85 29.4 62 16.5 46 46 NW 5 7 29.94 1014 10 16 0.00 0.00
6:55 pm 18:55 Sunny 84 29 61 16.3 46 46 NNW 5 7 29.94 1014 10 16 0.00 0.00
7:15 pm 19:15 Sunny 84 29.1 61 16.1 45 45 E 10 17 29.91 1013 10 16 0.00 0.00
7:35 pm 19:35 Sunny 83 28.6 60 15.6 45 45 E 7 11 29.94 1014 10 16 0.00 0.00
7:55 pm 19:55 Sunny 83 28.1 59 14.8 44 44 E 6 9 29.91 1013 10 16 0.00 0.00
8:15 pm 20:15 Sunny 80 26.8 60 15.6 50 50 E 5 7 29.97 1015 10 16 0.00 0.00
8:35 pm 20:35 Sunny 78 25.3 64 18 64 64 Calm 29.97 1015 10 16 0.00 0.00
8:55 pm 20:55 Sunny 73 22.8 66 18.8 78 78 Calm 29.97 1015 10 16 0.00 0.00
9:15 pm 21:15 Clear 71 21.6 66 19.1 86 86 Calm 29.97 1015 10 16 0.00 0.00
9:35 pm 21:35 Clear 71 21.7 64 17.8 79 79 Calm 29.97 1015 10 16 0.00 0.00
9:55 pm 21:55 Clear 70 21.2 64 18 82 82 Calm 29.97 1015 10 16 0.00 0.00
10:15 pm 22:15 Clear 68 19.9 64 17.9 88 88 Calm 30.00 1016 10 16 0.00 0.00
10:35 pm 22:35 Clear 67 19.5 64 17.6 89 89 Calm 30.00 1016 10 16 0.00 0.00
10:55 pm 22:55 Clear 67 19.2 63 17.1 88 88 Calm 30.00 1016 10 16 0.00 0.00
11:15 pm 23:15 Clear 66 18.9 63 17.4 91 91 Calm 30.00 1016 10 16 0.00 0.00
11:35 pm 23:35 Clear 65 18.6 63 17 90 90 NNE 5 7 30.00 1016 10 16 0.00 0.00
11:55 pm 23:55 Clear 65 18.5 63 17.2 92 92 Calm 30.00 1016 10 16 0.00 0.00

Powered by AerisWeather